NOAA 20 (JPSS-1)

Last updated on Wed Sep 17 2025 00:02:22 GMT+0000 (Coordinated Universal Time)

1 43013U 17073A 25259.58847478 .00000073 00000+0 55319-4 0 9999 2 43013 98.7449 196.9024 0001511 45.5106 314.6193 14.19560443405658
UTC large
Height (km)
Speed (km/s)
/
Latitude / Longitude
Inclination (degrees)
Orbital Period (minutes)
Azimuth
Elevation
Range (km)
Doppler Factor

Next 0 passes for location: London (51.5072 / 0.1276)

Sorry there are no passes over London.